Time,TemperatureF,DewpointF,PressureIn,WindDirection,WindDirectionDegrees,WindSpeedMPH,WindSpeedGustMPH,Humidity,HourlyPrecipIn,Conditions,Clouds,dailyrainin,SoftwareType,DateUTC
2013-10-16 00:00:00,52.5,49.7,29.94,NE,45,0.0,0.0,90,0.00,,,0.00,VWS V14.01,2013-10-16 04:00:00,
2013-10-16 00:01:00,52.3,49.5,29.94,NE,45,0.0,0.0,90,0.00,,,0.00,VWS V14.01,2013-10-16 04:01:00,
2013-10-16 00:05:00,52.5,50.0,29.94,NE,45,0.0,0.0,91,0.00,,,0.00,VWS V14.01,2013-10-16 04:05:00,
2013-10-16 00:06:00,52.5,50.0,29.94,NE,45,0.0,0.0,91,0.00,,,0.00,VWS V14.01,2013-10-16 04:06:00,
2013-10-16 00:10:00,52.5,49.7,29.94,NE,45,0.0,0.0,90,0.00,,,0.00,VWS V14.01,2013-10-16 04:10:00,
2013-10-16 00:11:00,52.5,49.7,29.94,NE,45,0.0,0.0,90,0.00,,,0.00,VWS V14.01,2013-10-16 04:11:00,
2013-10-16 00:15:00,52.5,50.0,29.94,NE,45,0.0,0.0,91,0.00,,,0.00,VWS V14.01,2013-10-16 04:15:00,
2013-10-16 00:16:00,52.5,50.0,29.94,NE,45,0.0,0.0,91,0.00,,,0.00,VWS V14.01,2013-10-16 04:16:00,
2013-10-16 00:20:00,52.3,49.5,29.94,NE,45,0.0,0.0,90,0.00,,,0.00,VWS V14.01,2013-10-16 04:20:00,
2013-10-16 00:21:00,52.3,49.8,29.94,NE,45,0.0,0.0,91,0.00,,,0.00,VWS V14.01,2013-10-16 04:21:00,
2013-10-16 00:25:00,52.3,49.8,29.94,NE,45,0.0,0.0,91,0.00,,,0.00,VWS V14.01,2013-10-16 04:25:00,
2013-10-16 00:26:00,52.3,49.8,29.94,NE,45,0.0,0.0,91,0.00,,,0.00,VWS V14.01,2013-10-16 04:26:00,
2013-10-16 00:30:00,52.3,49.8,29.94,NE,45,0.0,0.0,91,0.00,,,0.00,VWS V14.01,2013-10-16 04:30:00,
2013-10-16 00:31:00,52.3,49.8,29.94,NE,45,0.0,0.0,91,0.00,,,0.00,VWS V14.01,2013-10-16 04:31:00,
2013-10-16 00:35:00,52.5,50.0,29.94,NE,45,0.0,0.0,91,0.00,,,0.00,VWS V14.01,2013-10-16 04:35:00,
2013-10-16 00:36:00,52.5,50.0,29.94,NE,45,0.0,0.0,91,0.00,,,0.00,VWS V14.01,2013-10-16 04:36:00,
2013-10-16 00:40:00,52.5,50.0,29.94,NE,45,0.0,0.0,91,0.00,,,0.00,VWS V14.01,2013-10-16 04:40:00,
2013-10-16 00:41:00,52.5,50.0,29.94,NE,45,0.0,0.0,91,0.00,,,0.00,VWS V14.01,2013-10-16 04:41:00,
2013-10-16 00:45:00,52.5,50.3,29.94,NE,45,0.0,0.0,92,0.00,,,0.00,VWS V14.01,2013-10-16 04:45:00,
2013-10-16 00:46:00,52.7,50.5,29.94,NE,45,0.0,0.0,92,0.00,,,0.00,VWS V14.01,2013-10-16 04:46:00,
2013-10-16 00:50:00,52.7,50.5,29.94,NE,45,0.0,0.0,92,0.00,,,0.00,VWS V14.01,2013-10-16 04:50:00,
2013-10-16 00:51:00,52.7,50.5,29.94,NE,45,0.0,0.0,92,0.00,,,0.00,VWS V14.01,2013-10-16 04:51:00,
2013-10-16 00:55:00,52.9,50.6,29.94,NE,45,0.0,0.0,92,0.00,,,0.00,VWS V14.01,2013-10-16 04:55:00,
2013-10-16 00:56:00,52.9,50.6,29.94,NE,45,0.0,0.0,92,0.00,,,0.00,VWS V14.01,2013-10-16 04:56:00,
2013-10-16 01:00:00,52.9,50.9,29.94,NE,45,0.0,0.0,93,0.00,,,0.00,VWS V14.01,2013-10-16 05:00:00,
2013-10-16 01:01:00,53.1,51.1,29.94,NE,45,0.0,0.0,93,0.00,,,0.00,VWS V14.01,2013-10-16 05:01:00,
2013-10-16 01:05:00,53.1,51.1,29.94,NE,45,0.0,0.0,93,0.00,,,0.00,VWS V14.01,2013-10-16 05:05:00,
2013-10-16 01:06:00,53.1,51.1,29.94,NE,45,0.0,0.0,93,0.00,,,0.00,VWS V14.01,2013-10-16 05:06:00,
2013-10-16 01:10:00,53.2,51.3,29.94,NE,45,0.0,1.3,93,0.00,,,0.00,VWS V14.01,2013-10-16 05:10:00,
2013-10-16 01:11:00,53.2,51.3,29.94,NE,45,0.9,0.9,93,0.00,,,0.00,VWS V14.01,2013-10-16 05:11:00,
2013-10-16 01:15:00,53.2,51.3,29.94,NE,45,1.3,1.6,93,0.00,,,0.00,VWS V14.01,2013-10-16 05:15:00,
2013-10-16 01:16:00,53.2,51.3,29.94,NE,45,0.9,1.3,93,0.00,,,0.00,VWS V14.01,2013-10-16 05:16:00,
2013-10-16 01:20:00,53.4,51.5,29.94,NE,45,0.0,1.3,93,0.00,,,0.00,VWS V14.01,2013-10-16 05:20:00,
2013-10-16 01:25:00,53.6,51.6,29.94,NE,45,0.9,1.3,93,0.00,,,0.00,VWS V14.01,2013-10-16 05:25:00,
2013-10-16 01:30:00,53.8,51.8,29.91,NE,45,1.1,2.0,93,0.00,,,0.00,VWS V14.01,2013-10-16 05:30:00,
2013-10-16 01:35:00,53.8,51.8,29.91,NE,45,0.0,0.0,93,0.00,,,0.00,VWS V14.01,2013-10-16 05:35:00,
2013-10-16 01:40:00,54.0,52.0,29.91,NE,45,0.0,0.0,93,0.00,,,0.00,VWS V14.01,2013-10-16 05:40:00,
2013-10-16 01:45:00,54.0,52.0,29.94,NE,45,0.0,0.0,93,0.00,,,0.00,VWS V14.01,2013-10-16 05:45:00,
2013-10-16 01:50:00,54.0,52.0,29.94,NE,45,0.0,0.0,93,0.00,,,0.00,VWS V14.01,2013-10-16 05:50:00,
2013-10-16 01:55:00,54.0,52.0,29.94,NE,45,0.0,0.0,93,0.00,,,0.00,VWS V14.01,2013-10-16 05:55:00,
2013-10-16 02:00:00,54.1,52.2,29.94,NE,45,0.0,0.0,93,0.00,,,0.00,VWS V14.01,2013-10-16 06:00:00,
2013-10-16 02:05:00,54.1,52.2,29.94,NE,45,0.0,0.0,93,0.00,,,0.00,VWS V14.01,2013-10-16 06:05:00,
2013-10-16 02:10:00,54.1,52.2,29.94,NE,45,0.0,0.0,93,0.00,,,0.00,VWS V14.01,2013-10-16 06:10:00,
2013-10-16 02:15:00,54.3,52.3,29.94,NE,45,0.0,0.0,93,0.00,,,0.00,VWS V14.01,2013-10-16 06:15:00,
2013-10-16 02:20:00,54.3,52.3,29.94,NE,45,0.0,0.0,93,0.00,,,0.00,VWS V14.01,2013-10-16 06:20:00,
2013-10-16 02:25:00,54.3,52.3,29.94,NE,45,0.0,0.0,93,0.00,,,0.00,VWS V14.01,2013-10-16 06:25:00,
2013-10-16 02:30:00,54.3,52.3,29.94,NE,45,0.0,0.0,93,0.00,,,0.00,VWS V14.01,2013-10-16 06:30:00,
2013-10-16 02:35:00,54.5,52.5,29.94,NE,45,0.0,0.0,93,0.00,,,0.00,VWS V14.01,2013-10-16 06:35:00,
2013-10-16 02:40:00,54.5,52.5,29.94,NE,45,0.0,0.0,93,0.00,,,0.00,VWS V14.01,2013-10-16 06:40:00,
2013-10-16 02:45:00,54.5,52.5,29.94,NE,45,0.0,0.0,93,0.00,,,0.00,VWS V14.01,2013-10-16 06:45:00,
2013-10-16 02:50:00,54.5,52.2,29.94,NE,45,0.0,0.0,92,0.00,,,0.00,VWS V14.01,2013-10-16 06:50:00,
2013-10-16 02:55:00,54.5,52.2,29.94,NE,45,0.0,0.0,92,0.00,,,0.00,VWS V14.01,2013-10-16 06:55:00,
2013-10-16 03:00:00,54.5,52.2,29.94,NE,45,0.0,0.0,92,0.00,,,0.00,VWS V14.01,2013-10-16 07:00:00,
2013-10-16 03:05:00,54.5,52.2,29.94,NE,45,0.0,0.0,92,0.00,,,0.00,VWS V14.01,2013-10-16 07:05:00,
2013-10-16 03:10:00,54.5,52.2,29.94,NE,45,0.0,0.0,92,0.00,,,0.00,VWS V14.01,2013-10-16 07:10:00,
2013-10-16 03:15:00,54.5,52.2,29.91,NE,45,0.0,0.0,92,0.00,,,0.00,VWS V14.01,2013-10-16 07:15:00,
2013-10-16 03:20:00,54.3,52.0,29.91,NE,45,0.0,0.0,92,0.00,,,0.00,VWS V14.01,2013-10-16 07:20:00,
2013-10-16 03:25:00,54.3,52.0,29.91,NE,45,0.0,0.0,92,0.00,,,0.00,VWS V14.01,2013-10-16 07:25:00,
2013-10-16 03:30:00,54.1,51.9,29.91,NE,45,0.0,0.0,92,0.00,,,0.00,VWS V14.01,2013-10-16 07:30:00,
2013-10-16 03:35:00,54.1,51.9,29.91,NE,45,0.0,0.0,92,0.00,,,0.00,VWS V14.01,2013-10-16 07:35:00,
2013-10-16 03:40:00,54.0,51.7,29.91,NE,45,0.0,0.0,92,0.00,,,0.00,VWS V14.01,2013-10-16 07:40:00,
2013-10-16 03:45:00,54.0,51.7,29.91,NE,45,0.0,0.0,92,0.00,,,0.00,VWS V14.01,2013-10-16 07:45:00,
2013-10-16 03:50:00,54.0,51.7,29.91,NE,45,0.0,0.0,92,0.00,,,0.00,VWS V14.01,2013-10-16 07:50:00,
2013-10-16 03:55:00,54.0,51.7,29.91,NE,45,0.0,0.0,92,0.00,,,0.00,VWS V14.01,2013-10-16 07:55:00,
2013-10-16 04:00:00,54.0,52.0,29.91,NE,45,0.0,0.0,93,0.00,,,0.00,VWS V14.01,2013-10-16 08:00:00,
2013-10-16 04:05:00,54.0,52.0,29.91,NE,45,0.0,0.0,93,0.00,,,0.00,VWS V14.01,2013-10-16 08:05:00,
2013-10-16 04:10:00,54.1,52.2,29.91,NE,45,0.0,0.0,93,0.00,,,0.00,VWS V14.01,2013-10-16 08:10:00,
2013-10-16 04:15:00,54.1,51.9,29.94,NE,45,0.0,0.0,92,0.00,,,0.00,VWS V14.01,2013-10-16 08:15:00,
2013-10-16 04:20:00,54.3,52.0,29.94,NE,45,0.0,0.0,92,0.00,,,0.00,VWS V14.01,2013-10-16 08:20:00,
2013-10-16 04:25:00,54.3,52.0,29.94,NE,45,0.0,0.0,92,0.00,,,0.00,VWS V14.01,2013-10-16 08:25:00,
2013-10-16 04:30:00,54.5,52.2,29.91,NE,45,0.0,0.0,92,0.00,,,0.00,VWS V14.01,2013-10-16 08:30:00,
2013-10-16 04:35:00,54.5,52.2,29.91,NE,45,0.0,0.0,92,0.00,,,0.00,VWS V14.01,2013-10-16 08:35:00,
2013-10-16 04:40:00,54.7,52.4,29.91,NE,45,0.0,0.0,92,0.00,,,0.00,VWS V14.01,2013-10-16 08:40:00,
2013-10-16 04:45:00,54.7,52.4,29.91,NE,45,0.0,0.0,92,0.00,,,0.00,VWS V14.01,2013-10-16 08:45:00,
2013-10-16 04:50:00,54.9,52.3,29.91,NE,45,0.0,0.0,91,0.00,,,0.00,VWS V14.01,2013-10-16 08:50:00,
2013-10-16 04:55:00,54.9,52.3,29.91,NE,45,0.0,0.0,91,0.00,,,0.00,VWS V14.01,2013-10-16 08:55:00,
2013-10-16 05:00:00,55.0,52.5,29.94,NE,45,0.0,0.0,91,0.00,,,0.00,VWS V14.01,2013-10-16 09:00:00,
2013-10-16 05:05:00,55.0,52.5,29.94,NE,45,0.0,0.0,91,0.00,,,0.00,VWS V14.01,2013-10-16 09:05:00,
2013-10-16 05:10:00,55.2,52.6,29.94,NE,45,0.0,0.0,91,0.00,,,0.00,VWS V14.01,2013-10-16 09:10:00,
2013-10-16 05:15:00,55.2,52.6,29.94,NE,45,0.0,0.0,91,0.00,,,0.00,VWS V14.01,2013-10-16 09:15:00,
2013-10-16 05:20:00,55.2,52.3,29.94,NE,45,0.0,0.0,90,0.00,,,0.00,VWS V14.01,2013-10-16 09:20:00,
2013-10-16 05:25:00,55.4,52.5,29.94,NE,45,0.0,0.0,90,0.00,,,0.00,VWS V14.01,2013-10-16 09:25:00,
2013-10-16 05:30:00,55.4,52.5,29.91,NE,45,0.0,0.0,90,0.00,,,0.00,VWS V14.01,2013-10-16 09:30:00,
2013-10-16 05:35:00,55.4,52.2,29.91,NE,45,0.0,0.0,89,0.00,,,0.00,VWS V14.01,2013-10-16 09:35:00,
2013-10-16 05:40:00,55.6,52.4,29.91,NE,45,0.0,0.0,89,0.00,,,0.00,VWS V14.01,2013-10-16 09:40:00,
2013-10-16 05:45:00,55.6,52.4,29.91,NE,45,0.0,0.0,89,0.00,,,0.00,VWS V14.01,2013-10-16 09:45:00,
2013-10-16 05:50:00,55.6,52.4,29.91,NE,45,0.0,0.0,89,0.00,,,0.00,VWS V14.01,2013-10-16 09:50:00,
2013-10-16 05:55:00,55.6,52.7,29.91,NE,45,0.0,0.0,90,0.00,,,0.00,VWS V14.01,2013-10-16 09:55:00,
2013-10-16 06:00:00,55.8,52.9,29.91,NE,45,0.0,0.0,90,0.00,,,0.00,VWS V14.01,2013-10-16 10:00:00,
2013-10-16 06:05:00,55.8,52.6,29.91,NE,45,0.0,0.0,89,0.00,,,0.00,VWS V14.01,2013-10-16 10:05:00,
2013-10-16 06:10:00,55.8,52.6,29.91,NE,45,0.0,0.0,89,0.00,,,0.00,VWS V14.01,2013-10-16 10:10:00,
2013-10-16 06:15:00,55.8,52.6,29.91,NE,45,0.0,0.0,89,0.00,,,0.00,VWS V14.01,2013-10-16 10:15:00,
2013-10-16 06:20:00,55.8,52.6,29.91,NE,45,0.0,0.0,89,0.00,,,0.00,VWS V14.01,2013-10-16 10:20:00,
2013-10-16 06:25:00,55.9,52.8,29.91,NE,45,0.0,0.0,89,0.00,,,0.00,VWS V14.01,2013-10-16 10:25:00,
2013-10-16 06:30:00,55.9,52.8,29.91,NE,45,0.0,0.0,89,0.00,,,0.00,VWS V14.01,2013-10-16 10:30:00,
2013-10-16 06:35:00,55.9,52.4,29.91,NE,45,0.0,0.0,88,0.00,,,0.00,VWS V14.01,2013-10-16 10:35:00,
2013-10-16 06:40:00,55.9,52.4,29.91,NE,45,0.0,0.0,88,0.00,,,0.00,VWS V14.01,2013-10-16 10:40:00,
2013-10-16 06:45:00,55.9,52.4,29.94,NE,45,0.0,0.0,88,0.00,,,0.00,VWS V14.01,2013-10-16 10:45:00,
2013-10-16 06:50:00,55.9,52.4,29.94,NE,45,0.0,0.0,88,0.00,,,0.00,VWS V14.01,2013-10-16 10:50:00,
2013-10-16 06:55:00,55.9,52.4,29.94,NE,45,0.0,0.0,88,0.00,,,0.00,VWS V14.01,2013-10-16 10:55:00,
2013-10-16 06:59:00,55.9,52.4,29.91,NE,45,0.0,0.0,88,0.00,,,0.00,VWS V14.01,2013-10-16 10:59:00,
2013-10-16 07:00:00,55.9,52.4,29.91,NE,45,0.0,0.0,88,0.00,,,0.00,VWS V14.01,2013-10-16 11:00:00,
2013-10-16 07:04:00,55.9,52.4,29.91,NE,45,0.0,0.0,88,0.00,,,0.00,VWS V14.01,2013-10-16 11:04:00,
2013-10-16 07:05:00,55.9,52.4,29.91,NE,45,0.0,0.0,88,0.00,,,0.00,VWS V14.01,2013-10-16 11:05:00,
2013-10-16 07:09:00,55.9,52.4,29.91,NE,45,0.0,0.0,88,0.00,,,0.00,VWS V14.01,2013-10-16 11:09:00,
2013-10-16 07:10:00,55.9,52.4,29.91,NE,45,0.0,0.0,88,0.00,,,0.00,VWS V14.01,2013-10-16 11:10:00,
2013-10-16 07:14:00,55.9,52.4,29.91,NE,45,0.0,0.0,88,0.00,,,0.00,VWS V14.01,2013-10-16 11:14:00,
2013-10-16 07:15:00,55.9,52.4,29.91,NE,45,0.0,0.0,88,0.00,,,0.00,VWS V14.01,2013-10-16 11:15:00,
2013-10-16 07:19:00,55.9,52.4,29.91,NE,45,0.0,0.0,88,0.00,,,0.00,VWS V14.01,2013-10-16 11:19:00,
2013-10-16 07:20:00,55.9,52.4,29.91,NE,45,0.0,0.0,88,0.00,,,0.00,VWS V14.01,2013-10-16 11:20:00,
2013-10-16 07:24:00,55.9,52.4,29.91,NE,45,0.0,0.0,88,0.00,,,0.00,VWS V14.01,2013-10-16 11:24:00,
2013-10-16 07:25:00,55.9,52.4,29.91,NE,45,0.0,0.0,88,0.00,,,0.00,VWS V14.01,2013-10-16 11:25:00,
2013-10-16 07:29:00,55.9,52.4,29.91,NE,45,0.0,0.0,88,0.00,,,0.00,VWS V14.01,2013-10-16 11:29:00,
2013-10-16 07:30:00,55.9,52.4,29.91,NE,45,0.0,0.0,88,0.00,,,0.00,VWS V14.01,2013-10-16 11:30:00,
2013-10-16 07:34:00,56.1,52.6,29.91,NE,45,0.0,0.0,88,0.00,,,0.00,VWS V14.01,2013-10-16 11:34:00,
2013-10-16 07:35:00,56.1,52.6,29.91,NE,45,0.0,0.0,88,0.00,,,0.00,VWS V14.01,2013-10-16 11:35:00,
2013-10-16 07:39:00,56.1,52.6,29.91,NE,45,0.0,0.0,88,0.00,,,0.00,VWS V14.01,2013-10-16 11:39:00,
2013-10-16 07:40:00,56.1,52.6,29.91,NE,45,0.0,0.0,88,0.00,,,0.00,VWS V14.01,2013-10-16 11:40:00,
2013-10-16 07:44:00,56.1,52.6,29.91,NE,45,0.0,0.0,88,0.00,,,0.00,VWS V14.01,2013-10-16 11:44:00,
2013-10-16 07:45:00,56.1,52.6,29.91,NE,45,0.0,0.0,88,0.00,,,0.00,VWS V14.01,2013-10-16 11:45:00,
2013-10-16 07:49:00,56.3,52.8,29.91,NE,45,0.0,0.0,88,0.00,,,0.00,VWS V14.01,2013-10-16 11:49:00,
2013-10-16 07:50:00,56.3,52.8,29.91,NE,45,0.0,0.0,88,0.00,,,0.00,VWS V14.01,2013-10-16 11:50:00,
2013-10-16 07:54:00,56.3,52.8,29.91,NE,45,0.0,0.0,88,0.00,,,0.00,VWS V14.01,2013-10-16 11:54:00,
2013-10-16 07:55:00,56.3,52.8,29.91,NE,45,0.0,0.0,88,0.00,,,0.00,VWS V14.01,2013-10-16 11:55:00,
2013-10-16 07:59:00,56.3,52.8,29.91,NE,45,0.0,0.0,88,0.00,,,0.00,VWS V14.01,2013-10-16 11:59:00,
2013-10-16 08:00:00,56.3,52.8,29.91,NE,45,0.0,0.0,88,0.00,,,0.00,VWS V14.01,2013-10-16 12:00:00,
2013-10-16 08:04:00,56.5,53.3,29.91,NE,45,0.0,0.0,89,0.00,,,0.00,VWS V14.01,2013-10-16 12:04:00,
2013-10-16 08:05:00,56.5,53.3,29.91,NE,45,0.0,0.0,89,0.00,,,0.00,VWS V14.01,2013-10-16 12:05:00,
2013-10-16 08:09:00,56.7,53.5,29.91,NE,45,0.0,0.0,89,0.00,,,0.00,VWS V14.01,2013-10-16 12:09:00,
2013-10-16 08:10:00,56.7,53.5,29.91,NE,45,0.0,0.0,89,0.00,,,0.00,VWS V14.01,2013-10-16 12:10:00,
2013-10-16 08:14:00,56.7,53.5,29.91,NE,45,0.0,0.0,89,0.00,,,0.00,VWS V14.01,2013-10-16 12:14:00,
2013-10-16 08:15:00,56.7,53.5,29.91,NE,45,0.0,0.0,89,0.00,,,0.00,VWS V14.01,2013-10-16 12:15:00,
2013-10-16 08:19:00,56.7,53.5,29.91,NE,45,0.0,0.0,89,0.00,,,0.00,VWS V14.01,2013-10-16 12:19:00,
2013-10-16 08:20:00,56.8,53.6,29.91,NE,45,0.0,0.0,89,0.00,,,0.00,VWS V14.01,2013-10-16 12:20:00,
2013-10-16 08:24:00,56.8,53.6,29.91,NE,45,0.0,0.0,89,0.00,,,0.00,VWS V14.01,2013-10-16 12:24:00,
2013-10-16 08:25:00,56.8,53.6,29.91,NE,45,0.0,0.0,89,0.00,,,0.00,VWS V14.01,2013-10-16 12:25:00,
2013-10-16 08:29:00,56.8,53.6,29.91,NE,45,0.0,0.0,89,0.00,,,0.00,VWS V14.01,2013-10-16 12:29:00,
2013-10-16 08:30:00,57.0,53.8,29.91,NE,45,0.0,0.0,89,0.00,,,0.00,VWS V14.01,2013-10-16 12:30:00,
2013-10-16 08:34:00,57.2,53.7,29.91,NE,45,0.0,1.3,88,0.00,,,0.00,VWS V14.01,2013-10-16 12:34:00,
2013-10-16 08:35:00,57.2,53.7,29.91,NE,45,0.0,1.3,88,0.00,,,0.00,VWS V14.01,2013-10-16 12:35:00,
2013-10-16 08:39:00,57.4,53.9,29.91,NE,45,0.0,0.9,88,0.00,,,0.00,VWS V14.01,2013-10-16 12:39:00,
2013-10-16 08:40:00,57.4,53.9,29.91,NE,45,0.0,0.9,88,0.00,,,0.00,VWS V14.01,2013-10-16 12:40:00,
2013-10-16 08:44:00,57.4,53.9,29.91,NE,45,0.0,0.0,88,0.00,,,0.00,VWS V14.01,2013-10-16 12:44:00,
2013-10-16 08:45:00,57.6,54.0,29.91,NE,45,0.9,0.9,88,0.00,,,0.00,VWS V14.01,2013-10-16 12:45:00,
2013-10-16 08:49:00,57.6,54.0,29.91,NE,45,0.0,0.9,88,0.00,,,0.00,VWS V14.01,2013-10-16 12:49:00,
2013-10-16 08:50:00,57.7,54.2,29.91,NE,45,0.0,0.9,88,0.00,,,0.00,VWS V14.01,2013-10-16 12:50:00,
2013-10-16 08:54:00,57.7,53.9,29.91,NE,45,0.0,0.0,87,0.00,,,0.00,VWS V14.01,2013-10-16 12:54:00,
2013-10-16 08:55:00,57.9,54.1,29.91,NE,45,0.0,0.0,87,0.00,,,0.00,VWS V14.01,2013-10-16 12:55:00,
2013-10-16 08:59:00,57.9,54.4,29.91,NE,45,0.0,0.0,88,0.00,,,0.00,VWS V14.01,2013-10-16 12:59:00,
2013-10-16 09:00:00,58.1,54.6,29.91,NE,45,0.0,0.0,88,0.00,,,0.00,VWS V14.01,2013-10-16 13:00:00,
2013-10-16 09:04:00,58.3,54.4,29.91,SE,135,0.0,3.8,87,0.00,,,0.00,VWS V14.01,2013-10-16 13:04:00,
2013-10-16 09:05:00,58.5,54.6,29.91,SE,135,0.0,3.8,87,0.00,,,0.00,VWS V14.01,2013-10-16 13:05:00,
2013-10-16 09:09:00,58.6,54.8,29.91,SE,135,0.0,0.0,87,0.00,,,0.00,VWS V14.01,2013-10-16 13:09:00,
2013-10-16 09:10:00,58.6,54.8,29.91,SE,135,0.0,0.0,87,0.00,,,0.00,VWS V14.01,2013-10-16 13:10:00,
2013-10-16 09:14:00,58.8,55.0,29.91,SE,135,0.0,0.0,87,0.00,,,0.00,VWS V14.01,2013-10-16 13:14:00,
2013-10-16 09:15:00,58.8,55.0,29.91,SE,135,0.0,0.0,87,0.00,,,0.00,VWS V14.01,2013-10-16 13:15:00,
2013-10-16 09:19:00,59.0,54.8,29.91,SE,135,0.0,0.0,86,0.00,,,0.00,VWS V14.01,2013-10-16 13:19:00,
2013-10-16 09:20:00,59.0,54.8,29.91,SE,135,0.0,0.0,86,0.00,,,0.00,VWS V14.01,2013-10-16 13:20:00,
2013-10-16 09:24:00,59.2,55.0,29.91,SE,135,0.0,0.0,86,0.00,,,0.00,VWS V14.01,2013-10-16 13:24:00,
2013-10-16 09:25:00,59.2,55.0,29.91,SE,135,0.0,0.0,86,0.00,,,0.00,VWS V14.01,2013-10-16 13:25:00,
2013-10-16 09:29:00,59.2,55.0,29.91,SE,135,0.0,0.0,86,0.00,,,0.00,VWS V14.01,2013-10-16 13:29:00,
2013-10-16 09:30:00,59.2,55.0,29.91,SE,135,0.9,0.9,86,0.00,,,0.00,VWS V14.01,2013-10-16 13:30:00,
2013-10-16 09:34:00,59.4,54.9,29.91,SE,135,0.0,1.3,85,0.00,,,0.00,VWS V14.01,2013-10-16 13:34:00,
2013-10-16 09:35:00,59.4,54.9,29.91,SE,135,0.0,1.3,85,0.00,,,0.00,VWS V14.01,2013-10-16 13:35:00,
2013-10-16 09:39:00,59.5,55.0,29.91,SE,135,0.0,2.2,85,0.00,,,0.00,VWS V14.01,2013-10-16 13:39:00,
2013-10-16 09:40:00,59.5,55.0,29.91,SE,135,2.0,2.2,85,0.00,,,0.00,VWS V14.01,2013-10-16 13:40:00,
2013-10-16 09:44:00,59.7,55.2,29.91,SE,135,0.0,2.0,85,0.00,,,0.00,VWS V14.01,2013-10-16 13:44:00,
2013-10-16 09:45:00,59.7,55.2,29.91,SE,135,0.0,2.0,85,0.00,,,0.00,VWS V14.01,2013-10-16 13:45:00,
2013-10-16 09:49:00,59.7,55.2,29.91,SE,135,0.0,0.0,85,0.00,,,0.00,VWS V14.01,2013-10-16 13:49:00,
2013-10-16 09:50:00,59.7,55.2,29.91,SE,135,0.0,0.0,85,0.00,,,0.00,VWS V14.01,2013-10-16 13:50:00,
2013-10-16 09:54:00,59.9,55.4,29.91,SE,135,0.0,0.0,85,0.00,,,0.00,VWS V14.01,2013-10-16 13:54:00,
2013-10-16 09:55:00,59.9,55.4,29.91,ESE,112,2.0,2.0,85,0.00,,,0.00,VWS V14.01,2013-10-16 13:55:00,
2013-10-16 10:37:00,60.6,55.8,29.91,ESE,112,0.0,0.0,84,0.00,,,0.00,VWS V14.01,2013-10-16 14:37:00,
2013-10-16 10:42:00,60.8,55.9,29.88,ESE,112,0.0,0.9,84,0.00,,,0.00,VWS V14.01,2013-10-16 14:42:00,
2013-10-16 10:47:00,61.0,56.1,29.88,ESE,112,0.0,0.0,84,0.00,,,0.00,VWS V14.01,2013-10-16 14:47:00,
2013-10-16 10:52:00,61.2,56.3,29.88,ESE,112,0.0,2.5,84,0.00,,,0.00,VWS V14.01,2013-10-16 14:52:00,
2013-10-16 10:57:00,61.3,56.5,29.88,ESE,112,1.1,1.3,84,0.00,,,0.00,VWS V14.01,2013-10-16 14:57:00,
2013-10-16 11:02:00,61.7,56.5,29.88,South,180,0.0,1.6,83,0.00,,,0.00,VWS V14.01,2013-10-16 15:02:00,
2013-10-16 11:07:00,61.9,56.7,29.88,South,180,0.0,2.2,83,0.00,,,0.00,VWS V14.01,2013-10-16 15:07:00,
2013-10-16 11:12:00,62.1,56.8,29.88,South,180,0.0,0.0,83,0.00,,,0.00,VWS V14.01,2013-10-16 15:12:00,
2013-10-16 11:17:00,62.4,57.2,29.88,South,180,1.3,1.3,83,0.00,,,0.00,VWS V14.01,2013-10-16 15:17:00,
2013-10-16 11:22:00,62.6,57.4,29.88,SE,135,1.6,2.0,83,0.00,,,0.00,VWS V14.01,2013-10-16 15:22:00,
2013-10-16 11:27:00,63.0,57.4,29.88,SE,135,0.9,0.9,82,0.00,,,0.00,VWS V14.01,2013-10-16 15:27:00,
2013-10-16 11:32:00,63.1,57.6,29.88,NE,45,2.5,3.4,82,0.00,,,0.00,VWS V14.01,2013-10-16 15:32:00,
2013-10-16 11:37:00,63.3,57.4,29.88,NE,45,0.0,1.3,81,0.00,,,0.00,VWS V14.01,2013-10-16 15:37:00,
2013-10-16 11:42:00,63.9,57.9,29.88,NE,45,0.0,0.0,81,0.00,,,0.00,VWS V14.01,2013-10-16 15:42:00,
2013-10-16 11:46:00,64.2,58.3,29.88,NE,45,1.3,1.3,81,0.00,,,0.00,VWS V14.01,2013-10-16 15:46:00,
2013-10-16 11:51:00,64.4,58.1,29.88,West,270,0.9,2.9,80,0.00,,,0.00,VWS V14.01,2013-10-16 15:51:00,
2013-10-16 11:56:00,64.8,58.5,29.88,West,270,0.0,1.6,80,0.00,,,0.00,VWS V14.01,2013-10-16 15:56:00,
2013-10-16 12:02:00,65.3,58.6,29.88,ENE,68,0.9,2.2,79,0.00,,,0.00,VWS V14.01,2013-10-16 16:02:00,
2013-10-16 12:07:00,65.7,59.0,29.88,ENE,68,0.0,1.6,79,0.00,,,0.00,VWS V14.01,2013-10-16 16:07:00,
2013-10-16 12:12:00,65.7,59.0,29.88,ENE,68,0.0,2.0,79,0.00,,,0.00,VWS V14.01,2013-10-16 16:12:00,
2013-10-16 12:17:00,66.0,59.3,29.88,ENE,68,0.0,0.0,79,0.00,,,0.00,VWS V14.01,2013-10-16 16:17:00,
2013-10-16 12:22:00,66.4,59.3,29.88,East,90,0.0,2.5,78,0.00,,,0.00,VWS V14.01,2013-10-16 16:22:00,
2013-10-16 12:27:00,66.6,59.1,29.85,East,90,2.2,2.2,77,0.00,,,0.00,VWS V14.01,2013-10-16 16:27:00,
2013-10-16 12:32:00,66.7,59.3,29.85,East,90,0.0,0.9,77,0.00,,,0.00,VWS V14.01,2013-10-16 16:32:00,
2013-10-16 12:37:00,66.7,58.9,29.85,East,90,0.0,0.0,76,0.00,,,0.00,VWS V14.01,2013-10-16 16:37:00,
2013-10-16 12:42:00,67.1,58.9,29.85,East,90,0.0,0.0,75,0.00,,,0.00,VWS V14.01,2013-10-16 16:42:00,
2013-10-16 12:46:00,67.5,59.6,29.85,East,90,1.1,1.6,76,0.00,,,0.00,VWS V14.01,2013-10-16 16:46:00,
2013-10-16 12:51:00,67.6,59.4,29.85,East,90,0.0,0.0,75,0.00,,,0.00,VWS V14.01,2013-10-16 16:51:00,
2013-10-16 12:56:00,67.6,59.1,29.85,East,90,0.0,0.0,74,0.00,,,0.00,VWS V14.01,2013-10-16 16:56:00,
2013-10-16 13:01:00,67.6,59.1,29.85,East,90,0.0,0.0,74,0.00,,,0.00,VWS V14.01,2013-10-16 17:01:00,
2013-10-16 13:06:00,67.5,58.5,29.85,East,90,0.0,1.6,73,0.00,,,0.00,VWS V14.01,2013-10-16 17:06:00,
2013-10-16 13:11:00,67.8,59.2,29.85,East,90,0.0,2.2,74,0.00,,,0.00,VWS V14.01,2013-10-16 17:11:00,
2013-10-16 13:16:00,67.8,58.5,29.85,East,90,0.0,1.6,72,0.00,,,0.00,VWS V14.01,2013-10-16 17:16:00,
2013-10-16 13:21:00,67.6,58.3,29.85,NE,45,0.0,1.1,72,0.00,,,0.00,VWS V14.01,2013-10-16 17:21:00,
2013-10-16 13:26:00,67.8,58.5,29.82,NE,45,0.9,0.9,72,0.00,,,0.00,VWS V14.01,2013-10-16 17:26:00,
2013-10-16 13:31:00,68.0,58.7,29.82,NE,45,1.3,1.3,72,0.00,,,0.00,VWS V14.01,2013-10-16 17:31:00,
2013-10-16 13:36:00,68.2,58.8,29.82,NE,45,0.0,0.0,72,0.00,,,0.00,VWS V14.01,2013-10-16 17:36:00,
2013-10-16 13:41:00,68.4,59.0,29.82,NE,45,1.1,2.2,72,0.00,,,0.00,VWS V14.01,2013-10-16 17:41:00,
2013-10-16 13:46:00,68.4,59.0,29.82,NE,45,0.0,2.2,72,0.00,,,0.00,VWS V14.01,2013-10-16 17:46:00,
2013-10-16 13:51:00,68.4,58.6,29.82,NE,45,0.0,1.3,71,0.00,,,0.00,VWS V14.01,2013-10-16 17:51:00,
2013-10-16 13:56:00,68.4,58.6,29.82,NE,45,0.0,1.3,71,0.00,,,0.00,VWS V14.01,2013-10-16 17:56:00,
2013-10-16 14:01:00,68.4,58.6,29.82,NE,45,0.0,0.0,71,0.00,,,0.00,VWS V14.01,2013-10-16 18:01:00,
2013-10-16 14:06:00,68.2,58.8,29.82,NE,45,0.0,0.0,72,0.00,,,0.00,VWS V14.01,2013-10-16 18:06:00,
2013-10-16 14:11:00,68.2,58.8,29.82,NE,45,0.0,0.0,72,0.00,,,0.00,VWS V14.01,2013-10-16 18:11:00,
2013-10-16 14:16:00,68.2,58.4,29.82,NE,45,0.0,0.9,71,0.00,,,0.00,VWS V14.01,2013-10-16 18:16:00,
2013-10-16 14:21:00,68.2,58.8,29.82,NE,45,1.6,1.6,72,0.00,,,0.00,VWS V14.01,2013-10-16 18:21:00,
2013-10-16 14:26:00,68.2,58.8,29.82,NE,45,0.9,1.6,72,0.00,,,0.00,VWS V14.01,2013-10-16 18:26:00,
2013-10-16 14:27:00,68.2,58.8,29.82,NE,45,1.3,1.6,72,0.00,,,0.00,VWS V14.01,2013-10-16 18:27:00,
2013-10-16 14:32:00,68.0,59.0,29.82,NE,45,2.7,3.4,73,0.00,,,0.00,VWS V14.01,2013-10-16 18:32:00,
2013-10-16 14:37:00,67.8,58.9,29.82,NE,45,0.0,0.0,73,0.00,,,0.00,VWS V14.01,2013-10-16 18:37:00,
2013-10-16 14:42:00,68.0,59.4,29.82,NE,45,0.0,1.1,74,0.00,,,0.00,VWS V14.01,2013-10-16 18:42:00,
2013-10-16 14:47:00,67.8,59.2,29.82,ENE,68,2.5,2.5,74,0.00,,,0.00,VWS V14.01,2013-10-16 18:47:00,
2013-10-16 14:52:00,67.6,59.1,29.82,ENE,68,1.6,2.7,74,0.00,,,0.00,VWS V14.01,2013-10-16 18:52:00,
2013-10-16 14:57:00,67.5,58.9,29.82,ENE,68,0.0,2.7,74,0.00,,,0.00,VWS V14.01,2013-10-16 18:57:00,
2013-10-16 15:02:00,67.5,58.9,29.82,ENE,68,2.0,2.0,74,0.00,,,0.00,VWS V14.01,2013-10-16 19:02:00,
2013-10-16 15:07:00,67.5,58.9,29.82,ENE,68,0.0,1.3,74,0.00,,,0.00,VWS V14.01,2013-10-16 19:07:00,
2013-10-16 15:12:00,67.5,58.9,29.82,ENE,68,1.3,2.7,74,0.00,,,0.00,VWS V14.01,2013-10-16 19:12:00,
2013-10-16 15:17:00,67.5,58.9,29.82,ENE,68,0.9,2.7,74,0.00,,,0.00,VWS V14.01,2013-10-16 19:17:00,
2013-10-16 15:22:00,67.5,58.9,29.82,ENE,68,0.0,0.9,74,0.00,,,0.00,VWS V14.01,2013-10-16 19:22:00,
2013-10-16 15:26:00,67.6,59.1,29.82,ENE,68,0.0,1.3,74,0.00,,,0.00,VWS V14.01,2013-10-16 19:26:00,
2013-10-16 15:31:00,67.6,59.1,29.82,ENE,68,0.0,0.0,74,0.00,,,0.00,VWS V14.01,2013-10-16 19:31:00,
2013-10-16 15:36:00,67.8,59.2,29.82,NNE,22,1.3,2.5,74,0.00,,,0.00,VWS V14.01,2013-10-16 19:36:00,
2013-10-16 15:41:00,67.8,59.2,29.82,NNE,22,1.3,3.1,74,0.00,,,0.00,VWS V14.01,2013-10-16 19:41:00,
2013-10-16 15:46:00,67.8,59.2,29.82,NNE,22,1.3,2.5,74,0.00,,,0.00,VWS V14.01,2013-10-16 19:46:00,
2013-10-16 15:51:00,67.8,59.2,29.82,West,270,0.0,0.9,74,0.00,,,0.00,VWS V14.01,2013-10-16 19:51:00,
2013-10-16 15:56:00,67.6,58.7,29.82,West,270,0.0,0.0,73,0.00,,,0.00,VWS V14.01,2013-10-16 19:56:00,
2013-10-16 16:01:00,67.5,58.9,29.82,West,270,0.0,0.0,74,0.00,,,0.00,VWS V14.01,2013-10-16 20:01:00,
2013-10-16 16:06:00,67.6,59.1,29.82,West,270,0.0,0.0,74,0.00,,,0.00,VWS V14.01,2013-10-16 20:06:00,
2013-10-16 16:11:00,67.5,58.9,29.82,West,270,0.0,0.0,74,0.00,,,0.00,VWS V14.01,2013-10-16 20:11:00,
2013-10-16 16:16:00,67.5,58.9,29.82,West,270,1.6,2.0,74,0.00,,,0.00,VWS V14.01,2013-10-16 20:16:00,
2013-10-16 16:21:00,67.5,58.9,29.82,West,270,0.0,0.0,74,0.00,,,0.00,VWS V14.01,2013-10-16 20:21:00,
2013-10-16 16:26:00,67.3,58.7,29.82,West,270,0.0,0.0,74,0.00,,,0.00,VWS V14.01,2013-10-16 20:26:00,
2013-10-16 16:31:00,67.3,58.7,29.82,West,270,0.0,0.9,74,0.00,,,0.00,VWS V14.01,2013-10-16 20:31:00,
2013-10-16 16:36:00,67.5,59.3,29.82,West,270,0.0,1.1,75,0.00,,,0.00,VWS V14.01,2013-10-16 20:36:00,
2013-10-16 16:41:00,67.5,59.3,29.82,West,270,2.0,2.5,75,0.00,,,0.00,VWS V14.01,2013-10-16 20:41:00,
2013-10-16 16:46:00,67.6,59.4,29.82,West,270,1.1,2.0,75,0.00,,,0.00,VWS V14.01,2013-10-16 20:46:00,
2013-10-16 16:51:00,67.6,59.4,29.82,West,270,0.0,0.0,75,0.00,,,0.00,VWS V14.01,2013-10-16 20:51:00,
2013-10-16 16:56:00,67.5,59.3,29.79,West,270,0.0,0.0,75,0.00,,,0.00,VWS V14.01,2013-10-16 20:56:00,
2013-10-16 17:01:00,67.5,59.6,29.79,West,270,0.0,1.3,76,0.00,,,0.00,VWS V14.01,2013-10-16 21:01:00,
2013-10-16 17:06:00,67.3,59.5,29.79,West,270,0.0,0.0,76,0.00,,,0.00,VWS V14.01,2013-10-16 21:06:00,
2013-10-16 17:11:00,67.3,59.5,29.79,ESE,112,2.5,2.5,76,0.00,,,0.00,VWS V14.01,2013-10-16 21:11:00,
2013-10-16 17:16:00,67.1,59.3,29.79,ESE,112,0.0,0.0,76,0.00,,,0.00,VWS V14.01,2013-10-16 21:16:00,
2013-10-16 17:21:00,66.9,59.1,29.79,ESE,112,0.0,0.0,76,0.00,,,0.00,VWS V14.01,2013-10-16 21:21:00,
2013-10-16 17:26:00,66.7,58.9,29.79,ESE,112,0.0,1.6,76,0.00,,,0.00,VWS V14.01,2013-10-16 21:26:00,
2013-10-16 17:31:00,66.6,59.1,29.79,ESE,112,2.5,2.5,77,0.00,,,0.00,VWS V14.01,2013-10-16 21:31:00,
2013-10-16 17:36:00,66.4,59.0,29.79,ESE,112,1.6,2.7,77,0.00,,,0.00,VWS V14.01,2013-10-16 21:36:00,
2013-10-16 17:41:00,66.2,59.2,29.79,ESE,112,0.0,1.3,78,0.00,,,0.00,VWS V14.01,2013-10-16 21:41:00,
2013-10-16 17:46:00,66.0,59.3,29.79,ESE,112,1.3,1.3,79,0.00,,,0.00,VWS V14.01,2013-10-16 21:46:00,
2013-10-16 17:51:00,65.7,59.0,29.79,ESE,112,0.0,0.0,79,0.00,,,0.00,VWS V14.01,2013-10-16 21:51:00,
2013-10-16 17:56:00,65.7,59.3,29.79,ESE,112,2.5,3.1,80,0.00,,,0.00,VWS V14.01,2013-10-16 21:56:00,
2013-10-16 18:01:00,65.5,59.2,29.79,ESE,112,0.0,0.0,80,0.00,,,0.00,VWS V14.01,2013-10-16 22:01:00,
2013-10-16 18:06:00,65.3,59.0,29.79,ESE,112,0.0,0.0,80,0.00,,,0.00,VWS V14.01,2013-10-16 22:06:00,
2013-10-16 18:11:00,65.1,59.2,29.79,ESE,112,1.3,1.3,81,0.00,,,0.00,VWS V14.01,2013-10-16 22:11:00,
2013-10-16 18:16:00,64.9,59.0,29.79,ESE,112,2.2,2.9,81,0.00,,,0.00,VWS V14.01,2013-10-16 22:16:00,
2013-10-16 18:21:00,64.6,58.6,29.79,ESE,112,0.0,0.0,81,0.00,,,0.00,VWS V14.01,2013-10-16 22:21:00,
2013-10-16 18:26:00,64.4,58.8,29.79,ESE,112,0.0,0.0,82,0.00,,,0.00,VWS V14.01,2013-10-16 22:26:00,
2013-10-16 18:31:00,64.2,59.0,29.79,ESE,112,0.0,0.0,83,0.00,,,0.00,VWS V14.01,2013-10-16 22:31:00,
2013-10-16 18:36:00,64.2,59.0,29.79,ESE,112,0.0,2.0,83,0.00,,,0.00,VWS V14.01,2013-10-16 22:36:00,
2013-10-16 18:41:00,64.0,58.8,29.79,ESE,112,2.0,2.7,83,0.00,,,0.00,VWS V14.01,2013-10-16 22:41:00,
2013-10-16 18:46:00,63.9,58.6,29.79,ESE,112,0.9,0.9,83,0.00,,,0.00,VWS V14.01,2013-10-16 22:46:00,
2013-10-16 18:51:00,63.9,58.6,29.79,ESE,112,0.9,1.6,83,0.00,,,0.00,VWS V14.01,2013-10-16 22:51:00,
2013-10-16 18:56:00,63.7,58.8,29.79,ESE,112,0.0,0.0,84,0.00,,,0.00,VWS V14.01,2013-10-16 22:56:00,
2013-10-16 19:01:00,63.5,58.6,29.79,ESE,112,0.0,0.0,84,0.00,,,0.00,VWS V14.01,2013-10-16 23:01:00,
2013-10-16 19:06:00,63.1,58.6,29.79,ESE,112,0.0,0.0,85,0.00,,,0.00,VWS V14.01,2013-10-16 23:06:00,
2013-10-16 19:11:00,63.1,58.6,29.79,ESE,112,0.0,0.0,85,0.00,,,0.00,VWS V14.01,2013-10-16 23:11:00,
2013-10-16 19:16:00,63.0,58.7,29.79,ESE,112,0.0,0.0,86,0.00,,,0.00,VWS V14.01,2013-10-16 23:16:00,
2013-10-16 19:21:00,62.8,58.5,29.79,ESE,112,0.0,0.0,86,0.00,,,0.00,VWS V14.01,2013-10-16 23:21:00,
2013-10-16 19:26:00,62.8,58.5,29.79,ESE,112,0.0,0.0,86,0.00,,,0.00,VWS V14.01,2013-10-16 23:26:00,
2013-10-16 19:31:00,62.8,58.5,29.79,ESE,112,0.0,0.0,86,0.00,,,0.00,VWS V14.01,2013-10-16 23:31:00,
2013-10-16 19:36:00,62.8,58.5,29.79,ESE,112,0.0,0.0,86,0.00,,,0.00,VWS V14.01,2013-10-16 23:36:00,
2013-10-16 19:41:00,62.8,58.5,29.79,ESE,112,0.0,0.0,86,0.00,,,0.00,VWS V14.01,2013-10-16 23:41:00,
2013-10-16 19:46:00,62.1,58.5,29.79,ESE,112,0.0,0.0,88,0.00,,,0.00,VWS V14.01,2013-10-16 23:46:00,
2013-10-16 19:51:00,61.9,58.3,29.79,ESE,112,0.0,0.0,88,0.00,,,0.00,VWS V14.01,2013-10-16 23:51:00,
2013-10-16 19:56:00,61.9,58.6,29.79,ESE,112,0.0,0.0,89,0.00,,,0.00,VWS V14.01,2013-10-16 23:56:00,
2013-10-16 20:01:00,61.7,58.4,29.79,ESE,112,0.0,0.0,89,0.00,,,0.00,VWS V14.01,2013-10-17 00:01:00,
2013-10-16 20:06:00,61.5,58.2,29.79,ESE,112,0.0,0.0,89,0.00,,,0.00,VWS V14.01,2013-10-17 00:06:00,
2013-10-16 20:11:00,61.3,58.4,29.79,ESE,112,0.0,0.0,90,0.00,,,0.00,VWS V14.01,2013-10-17 00:11:00,
2013-10-16 20:16:00,61.3,58.4,29.79,ESE,112,0.0,0.0,90,0.00,,,0.00,VWS V14.01,2013-10-17 00:16:00,
2013-10-16 20:21:00,61.3,58.4,29.79,ESE,112,0.0,0.0,90,0.00,,,0.00,VWS V14.01,2013-10-17 00:21:00,
2013-10-16 20:26:00,61.3,58.4,29.79,ESE,112,0.0,0.0,90,0.00,,,0.00,VWS V14.01,2013-10-17 00:26:00,
2013-10-16 20:31:00,61.2,58.5,29.79,ESE,112,0.0,0.0,91,0.00,,,0.00,VWS V14.01,2013-10-17 00:31:00,
2013-10-16 20:36:00,61.0,58.3,29.79,ESE,112,0.0,0.0,91,0.00,,,0.00,VWS V14.01,2013-10-17 00:36:00,
2013-10-16 20:41:00,61.0,58.3,29.79,ESE,112,0.0,0.0,91,0.00,,,0.00,VWS V14.01,2013-10-17 00:41:00,
2013-10-16 20:46:00,61.0,58.3,29.79,ESE,112,0.0,0.0,91,0.00,,,0.00,VWS V14.01,2013-10-17 00:46:00,
2013-10-16 20:51:00,60.8,58.5,29.79,ESE,112,0.0,0.0,92,0.00,,,0.00,VWS V14.01,2013-10-17 00:51:00,
2013-10-16 20:55:00,60.6,58.3,29.79,ESE,112,0.0,0.0,92,0.00,,,0.00,VWS V14.01,2013-10-17 00:55:00,
2013-10-16 21:00:00,60.6,58.3,29.79,ESE,112,0.0,0.0,92,0.00,,,0.00,VWS V14.01,2013-10-17 01:00:00,
2013-10-16 21:05:00,60.6,58.3,29.79,ESE,112,0.0,0.0,92,0.00,,,0.00,VWS V14.01,2013-10-17 01:05:00,
2013-10-16 21:10:00,60.6,58.3,29.79,ESE,112,0.0,0.0,92,0.00,,,0.00,VWS V14.01,2013-10-17 01:10:00,
2013-10-16 21:15:00,60.4,58.4,29.79,ESE,112,0.0,0.0,93,0.00,,,0.00,VWS V14.01,2013-10-17 01:15:00,
2013-10-16 21:20:00,60.4,58.4,29.79,ESE,112,0.0,0.0,93,0.00,,,0.00,VWS V14.01,2013-10-17 01:20:00,
2013-10-16 21:25:00,60.4,58.4,29.79,ESE,112,0.0,0.0,93,0.00,,,0.00,VWS V14.01,2013-10-17 01:25:00,
2013-10-16 21:30:00,60.3,58.2,29.79,ESE,112,0.0,0.0,93,0.00,,,0.00,VWS V14.01,2013-10-17 01:30:00,
2013-10-16 21:35:00,60.3,58.2,29.79,ESE,112,0.0,0.0,93,0.00,,,0.00,VWS V14.01,2013-10-17 01:35:00,
2013-10-16 21:40:00,60.3,58.2,29.79,ESE,112,0.0,0.0,93,0.00,,,0.00,VWS V14.01,2013-10-17 01:40:00,
2013-10-16 21:45:00,60.1,58.0,29.79,ESE,112,0.0,0.0,93,0.00,,,0.00,VWS V14.01,2013-10-17 01:45:00,
2013-10-16 21:50:00,60.3,58.2,29.79,ESE,112,0.0,0.0,93,0.00,,,0.00,VWS V14.01,2013-10-17 01:50:00,
2013-10-16 21:55:00,60.3,58.2,29.79,ESE,112,0.0,0.0,93,0.00,,,0.00,VWS V14.01,2013-10-17 01:55:00,
2013-10-16 22:00:00,60.3,58.2,29.79,ESE,112,0.0,0.0,93,0.00,,,0.00,VWS V14.01,2013-10-17 02:00:00,
2013-10-16 22:05:00,60.3,58.5,29.79,ESE,112,0.0,0.0,94,0.00,,,0.00,VWS V14.01,2013-10-17 02:05:00,
2013-10-16 22:10:00,60.3,58.5,29.79,ESE,112,0.0,0.0,94,0.00,,,0.00,VWS V14.01,2013-10-17 02:10:00,
2013-10-16 22:15:00,60.4,58.7,29.79,ESE,112,0.0,0.0,94,0.00,,,0.00,VWS V14.01,2013-10-17 02:15:00,
2013-10-16 22:20:00,60.4,58.7,29.79,ESE,112,0.0,0.0,94,0.00,,,0.00,VWS V14.01,2013-10-17 02:20:00,
2013-10-16 22:25:00,60.4,58.7,29.79,ESE,112,0.0,0.0,94,0.00,,,0.00,VWS V14.01,2013-10-17 02:25:00,
2013-10-16 22:30:00,60.4,58.7,29.79,ESE,112,0.0,0.0,94,0.00,,,0.00,VWS V14.01,2013-10-17 02:30:00,
2013-10-16 22:35:00,60.4,58.7,29.79,ESE,112,0.0,0.0,94,0.00,,,0.00,VWS V14.01,2013-10-17 02:35:00,
2013-10-16 22:40:00,60.6,58.9,29.79,ESE,112,0.0,0.0,94,0.00,,,0.00,VWS V14.01,2013-10-17 02:40:00,
2013-10-16 22:45:00,60.6,59.2,29.79,SW,225,0.9,1.6,95,0.00,,,0.00,VWS V14.01,2013-10-17 02:45:00,
2013-10-16 22:50:00,60.6,59.2,29.79,SW,225,0.0,0.0,95,0.00,,,0.00,VWS V14.01,2013-10-17 02:50:00,
2013-10-16 22:55:00,60.8,59.1,29.79,SW,225,0.0,0.0,94,0.00,,,0.00,VWS V14.01,2013-10-17 02:55:00,
2013-10-16 23:01:00,60.8,59.1,29.79,SW,225,1.3,1.6,94,0.00,,,0.00,VWS V14.01,2013-10-17 03:01:00,
2013-10-16 23:06:00,60.8,59.1,29.79,SW,225,0.0,0.0,94,0.00,,,0.00,VWS V14.01,2013-10-17 03:06:00,
2013-10-16 23:11:00,60.8,59.1,29.79,SW,225,0.0,0.0,94,0.00,,,0.00,VWS V14.01,2013-10-17 03:11:00,
2013-10-16 23:16:00,60.8,59.1,29.79,SW,225,0.0,0.0,94,0.00,,,0.00,VWS V14.01,2013-10-17 03:16:00,
2013-10-16 23:21:00,60.8,59.1,29.79,SW,225,0.0,0.0,94,0.00,,,0.00,VWS V14.01,2013-10-17 03:21:00,
2013-10-16 23:26:00,61.0,59.2,29.79,SW,225,0.0,0.0,94,0.00,,,0.00,VWS V14.01,2013-10-17 03:26:00,
2013-10-16 23:31:00,61.0,59.2,29.79,SW,225,0.0,0.0,94,0.00,,,0.00,VWS V14.01,2013-10-17 03:31:00,
2013-10-16 23:36:00,61.0,59.2,29.79,SW,225,0.0,0.0,94,0.00,,,0.00,VWS V14.01,2013-10-17 03:36:00,
2013-10-16 23:41:00,61.0,59.2,29.79,SW,225,0.0,0.0,94,0.00,,,0.00,VWS V14.01,2013-10-17 03:41:00,
2013-10-16 23:46:00,61.0,59.2,29.76,SW,225,0.0,0.0,94,0.00,,,0.00,VWS V14.01,2013-10-17 03:46:00,
2013-10-16 23:51:00,61.0,59.2,29.76,SW,225,0.0,0.0,94,0.00,,,0.00,VWS V14.01,2013-10-17 03:51:00,
2013-10-16 23:56:00,61.0,59.2,29.76,SW,225,0.0,0.0,94,0.00,,,0.00,VWS V14.01,2013-10-17 03:56:00,